Location: ??????
(38.0677°N, 22.9870°E)
Time: 17:28:20
(UTC+00:00)

Cosmos 1386 Rocket - Pass Details

Date: 23 May 2024
Orbit: 928 x 1006 km, 83.0° (Epoch: 23 June)

Event Time Altitude Azimuth Distance (km) Brightness Sun altitude
Exits shadow 00:10:39 61° 233° (SW) 1,132 4.5 -26.3°
Maximum altitude 00:11:32 69° 278° (W) 1,074 4.5 -26.2°
Drops below altitude 10° 00:17:55 10° 2° (N) 2,783 7.7 -25.6°
Sets 00:20:29 0° 5° (N) 3,731 8.6 -25.3°
